Flag for Canada Weather past 2 weeks in Thunder Bay, Ontario, Canada

Now
10 °F

Partly sunny.


Feels Like: -5 °F
Forecast: -9 / 15 °F
Wind: 14 mph from Northwest

Location: Thunder Bay

Current Time: Jan 31, 2015 at 10:47:19 AM

Latest Report: Jan 31, 2015 at 10:00 AM


Visibility: 20 mi

Pressure: 30.27 "Hg

Humidity: 72%

Dew point: 3 °F

Location of Thunder BayLocation

Historic Weather in Thunder Bay — Graph

°F

Thunder Bay temperature yesterday

Maximum temperature yesterday: 12 °F (at 3:00 PM)
Minimum temperature yesterday: -13 °F (at 7:00 AM)
Average temperature yesterday: 2 °F

Past Weeks' High & Low Weather Summary

 TemperatureHumidityPressure
High39 °F (Jan 23, 1:00 PM)100% (Jan 17, 8:00 AM)30.57 "Hg (Jan 17, 8:00 AM)
Low-13 °F (Jan 16, 9:00 AM)40% (Jan 25, 3:00 PM)29.32 "Hg (Jan 17, 5:00 PM)
Average16 °F80%30.03 "Hg
* Reported Jan 16 9:00 AM — Jan 31 9:46 AM, Thunder Bay, Weather by CustomWeather, © 2014

Note: Actual official high and low records may vary slightly from our data, if they occured in-between our weather recording intervals... More about our weather records

Advertising

Thunder Bay weather history for previous 24 hours

 ConditionsComfort  
Time TempWeatherWind HumidityBarometerVisibility
9:46 AM
Jan 31
12 °FPartly sunny.13 mph67%30.27 "Hg20 mi
9:00 AM12 °FSnow flurries. Overcast.6 mph73%30.24 "Hg15 mi
8:00 AM12 °FPassing clouds.10 mph79%30.21 "Hg15 mi
7:00 AM14 °FLight snow. Overcast.7 mph79%30.17 "Hg15 mi
6:00 AM12 °FLight snow. Overcast.7 mph85%30.14 "Hg15 mi
5:00 AM9 °FLight snow. Overcast.6 mph92%30.14 "Hg15 mi
4:00 AM7 °FLight snow. Overcast.3 mph92%30.13 "Hg10 mi
3:48 AM7 °FLight snow. Overcast.5 mph92%30.13 "Hg10 mi
3:00 AM7 °FOvercast.6 mph92%30.15 "Hg15 mi
2:00 AM9 °FLight snow. Overcast.3 mph92%30.16 "Hg6 mi
1:00 AM10 °FLight snow. Overcast.2 mph85%30.18 "Hg2 mi
12:00 AM10 °FLight snow. Overcast.2 mph85%30.21 "Hg2 mi
11:00 PM
Jan 30
9 °FLight snow. Overcast.2 mph92%30.24 "Hg1 mi
10:00 PM9 °FLight snow. Overcast.No wind85%30.25 "Hg2 mi
9:00 PM9 °FMostly cloudy.3 mph78%30.27 "Hg15 mi
8:00 PM7 °FPassing clouds.No wind78%30.30 "Hg15 mi
7:00 PM10 °FPassing clouds.2 mph67%30.33 "Hg15 mi
6:00 PM10 °FPassing clouds.3 mph72%30.35 "Hg20 mi
5:00 PM10 °FPartly sunny.7 mph67%30.37 "Hg20 mi
4:00 PM10 °FBroken clouds.6 mph56%30.40 "Hg20 mi
3:00 PM12 °FBroken clouds.No wind48%30.43 "Hg20 mi
2:00 PM9 °FPartly sunny.7 mph56%30.45 "Hg20 mi
1:00 PM7 °FPartly sunny.6 mph61%30.50 "Hg20 mi
12:00 PM3 °FMostly cloudy.No wind66%30.54 "Hg20 mi
11:00 AM1 °FMostly cloudy.2 mph71%30.55 "Hg20 mi
10:00 AM0 °FPartly sunny.3 mph71%30.56 "Hg20 mi
Weather by CustomWeather, © 2014

See weather overviewHow to use our weather pages